Springfield, MO

2:53 AM CDT on September 28, 2016 (GMT -0500)
Springfield-Branson Regional

Weather History for KSGF - December, 2012

Change the Weather History Date:

Friday, December 7, 2012

  Actual Average Record
Temperature  
Mean Temperature 52 °F 37 °F  
Max Temperature 55 °F 47 °F 74 °F (1966)
Min Temperature 48 °F 27 °F -4 °F (1950)
Degree Days  
Heating Degree Days 13 28  
Month to date heating degree days 69 190  
Since 1 July heating degree days 986 1069  
Cooling Degree Days 0 0  
Month to date cooling degree days 2 0  
Year to date cooling degree days 1766 1389  
Growing Degree Days 2 (Base 50)    
Moisture  
Dew Point 50 °F    
Average Humidity 93    
Maximum Humidity 100    
Minimum Humidity 77    
Precipitation  
Precipitation 0.01 in 0.11 in 0.94 in (1890)
Month to date precipitation 0.77 0.81  
Year to date precipitation 30.61 43.34  
Snow  
Snow 0.00 in - - ()
Month to date snowfall 0.0  
Since 1 July snowfall 0.0  
Snow Depth 0.00 in    
Sea Level Pressure  
Sea Level Pressure 29.85 in    
Wind  
Wind Speed 3 mph (SSW)    
Max Wind Speed 10 mph    
Max Gust Speed 12 mph    
Visibility 5 miles    
Events Rain    
T = Trace of Precipitation, MM = Missing Value Source: NWS Daily Summary

Daily Weather History Graph

Daily Weather History Graph

Search for Another Location

Airport or City:

Trip Planner

Search our weather history database for the weather conditions in past years. The results will help you decide how hot, cold, wet, or windy it might be!

Date:

Astronomy

Dec. 07, 2012 Rise Set
Actual Time 7:14 AM CST 4:55 PM CST
Civil Twilight 6:45 AM CST 5:24 PM CST
Nautical Twilight 6:13 AM CST 5:57 PM CST
Astronomical Twilight 5:41 AM CST 6:28 PM CST
Moon 12:41 AM CST (12/7) 12:46 PM CST (12/7)
Length of Visible Light 10h 39m
Length of Day
9h 41m
Last Quarter, 38% of the Moon is Illuminated
Dec 7
Last Quarter
Dec 13
New
Dec 19
First Quarter
Dec 28
Full
Jan 4
Last Quarter

Hourly Weather History & Observations

Time (CST) Temp. Dew Point Humidity Pressure Visibility Wind Dir Wind Speed Gust Speed Precip Events Conditions
12:52 AM 50.0 °F 46.0 °F 86% 29.86 in 10.0 mi South 8.1 mph - N/A   Overcast
1:52 AM 50.0 °F 46.0 °F 86% 29.87 in 10.0 mi South 8.1 mph - N/A   Overcast
2:52 AM 48.9 °F 46.0 °F 90% 29.87 in 10.0 mi SSW 4.6 mph - N/A   Overcast
3:52 AM 48.9 °F 46.9 °F 93% 29.86 in 10.0 mi SSW 6.9 mph - N/A   Overcast
4:45 AM 50.0 °F 46.4 °F 87% 29.87 in 10.0 mi SSW 5.8 mph - N/A   Overcast
4:52 AM 50.0 °F 46.9 °F 89% 29.86 in 10.0 mi SW 5.8 mph - N/A   Overcast
5:03 AM 48.2 °F 46.4 °F 93% 29.86 in 10.0 mi SW 4.6 mph - N/A   Overcast
5:52 AM 48.9 °F 46.9 °F 93% 29.87 in 10.0 mi South 3.5 mph - N/A   Overcast
6:52 AM 50.0 °F 46.9 °F 89% 29.88 in 10.0 mi Calm Calm - N/A   Overcast
7:52 AM 48.9 °F 46.9 °F 93% 29.88 in 8.0 mi Calm Calm - N/A   Overcast
8:13 AM 50.0 °F 48.2 °F 94% 29.88 in 8.0 mi Calm Calm - N/A   Overcast
8:52 AM 53.1 °F 48.9 °F 86% 29.88 in 8.0 mi Calm Calm - N/A   Overcast
9:52 AM 53.1 °F 48.0 °F 83% 29.90 in 10.0 mi WSW 4.6 mph - N/A   Overcast
10:52 AM 53.1 °F 48.9 °F 86% 29.88 in 10.0 mi South 4.6 mph - N/A   Overcast
11:52 AM 54.0 °F 48.9 °F 83% 29.85 in 10.0 mi SSE 3.5 mph - N/A   Overcast
12:52 PM 54.0 °F 48.9 °F 83% 29.83 in 9.0 mi South 3.5 mph - N/A   Overcast
1:45 PM 53.6 °F 48.2 °F 82% 29.82 in 10.0 mi South 4.6 mph - N/A   Overcast
1:52 PM 54.0 °F 48.9 °F 83% 29.81 in 10.0 mi South 3.5 mph - N/A   Overcast
2:37 PM 53.6 °F 51.8 °F 94% 29.82 in 4.0 mi South 3.5 mph - N/A   Overcast
2:48 PM 53.6 °F 51.8 °F 94% 29.82 in 2.0 mi South 3.5 mph - N/A   Overcast
2:52 PM 53.1 °F 51.1 °F 93% 29.82 in 2.0 mi South 3.5 mph - N/A   Overcast
3:07 PM 51.8 °F 51.8 °F 100% 29.82 in 1.5 mi South 3.5 mph - N/A   Overcast
3:48 PM 51.8 °F 51.8 °F 100% 29.83 in 1.2 mi Calm Calm - N/A   Overcast
3:52 PM 52.0 °F 51.1 °F 97% 29.83 in 1.5 mi Calm Calm - 0.01 in   Overcast
4:32 PM 51.8 °F 51.8 °F 100% 29.83 in 1.5 mi Calm Calm - N/A   Overcast
4:52 PM 52.0 °F 52.0 °F 100% 29.83 in 1.5 mi SE 3.5 mph - N/A   Overcast
5:08 PM 51.8 °F 51.8 °F 100% 29.83 in 2.5 mi ESE 3.5 mph - N/A   Overcast
5:34 PM 53.6 °F 51.8 °F 94% 29.83 in 3.0 mi Calm Calm - N/A   Overcast
5:43 PM 53.6 °F 51.8 °F 94% 29.83 in 4.0 mi Calm Calm - N/A   Overcast
5:52 PM 53.1 °F 52.0 °F 96% 29.83 in 3.0 mi Calm Calm - N/A   Overcast
6:12 PM 53.6 °F 51.8 °F 94% 29.83 in 2.5 mi Calm Calm - N/A   Overcast
6:22 PM 53.6 °F 51.8 °F 94% 29.83 in 2.5 mi Calm Calm - N/A   Overcast
6:52 PM 53.1 °F 52.0 °F 96% 29.83 in 2.5 mi Calm Calm - N/A   Overcast
6:59 PM 53.6 °F 51.8 °F 94% 29.84 in 2.5 mi Calm Calm - N/A   Overcast
7:06 PM 53.6 °F 51.8 °F 94% 29.84 in 3.0 mi Calm Calm - N/A   Overcast
7:26 PM 53.6 °F 51.8 °F 94% 29.84 in 3.0 mi Calm Calm - N/A   Overcast
7:35 PM 53.6 °F 51.8 °F 94% 29.84 in 3.0 mi Calm Calm - N/A   Overcast
7:52 PM 53.1 °F 52.0 °F 96% 29.84 in 3.0 mi Calm Calm - 0.00 in Rain Light Rain
7:59 PM 53.6 °F 51.8 °F 94% 29.84 in 3.0 mi Calm Calm - 0.00 in   Overcast
8:50 PM 53.6 °F 51.8 °F 94% 29.85 in 2.5 mi West 3.5 mph - 0.00 in   Overcast
8:52 PM 53.1 °F 52.0 °F 96% 29.86 in 2.5 mi West 3.5 mph - 0.00 in   Overcast
9:00 PM 53.6 °F 51.8 °F 94% 29.86 in 3.0 mi Calm Calm - N/A   Overcast
9:52 PM 53.1 °F 52.0 °F 96% 29.86 in 3.0 mi Calm Calm - N/A   Overcast
10:01 PM 53.6 °F 51.8 °F 94% 29.86 in 3.0 mi Calm Calm - N/A   Overcast
10:09 PM 51.8 °F 51.8 °F 100% 29.87 in 2.5 mi NW 3.5 mph - N/A   Overcast
10:20 PM 51.8 °F 51.8 °F 100% 29.87 in 1.5 mi NNW 3.5 mph - N/A   Overcast
10:52 PM 52.0 °F 52.0 °F 100% 29.87 in 1.0 mi NNW 4.6 mph - N/A   Mist
11:09 PM 51.8 °F 51.8 °F 100% 29.88 in 3.0 mi North 5.8 mph - 0.00 in Rain Light Rain
11:52 PM 50.0 °F 48.9 °F 96% 29.88 in 3.0 mi North 8.1 mph - 0.00 in   Overcast